Year,Month,Day,Hour,Minute,Value (Times are PST for temperature in C)
2017,09,28,00,00,11.60
2017,09,28,00,01,11.60
2017,09,28,00,02,11.60
2017,09,28,00,03,11.60
2017,09,28,00,04,11.60
2017,09,28,00,05,11.60
2017,09,28,00,06,11.60
2017,09,28,00,07,11.60
2017,09,28,00,08,11.60
2017,09,28,00,09,11.60
2017,09,28,00,10,11.60
2017,09,28,00,11,11.60
2017,09,28,00,12,11.60
2017,09,28,00,13,11.60
2017,09,28,00,14,11.60
2017,09,28,00,15,11.60
2017,09,28,00,16,11.50
2017,09,28,00,17,11.50
2017,09,28,00,18,11.50
2017,09,28,00,19,11.50
2017,09,28,00,20,11.50
2017,09,28,00,21,11.40
2017,09,28,00,22,11.40
2017,09,28,00,23,11.40
2017,09,28,00,24,11.40
2017,09,28,00,25,11.40
2017,09,28,00,26,11.30
2017,09,28,00,27,11.30
2017,09,28,00,28,11.30
2017,09,28,00,29,11.30
2017,09,28,00,30,11.30
2017,09,28,00,31,11.30
2017,09,28,00,32,11.30
2017,09,28,00,33,11.30
2017,09,28,00,34,11.30
2017,09,28,00,35,11.30
2017,09,28,00,36,11.20
2017,09,28,00,37,11.20
2017,09,28,00,38,11.20
2017,09,28,00,39,11.20
2017,09,28,00,40,11.30
2017,09,28,00,41,11.30
2017,09,28,00,42,11.30
2017,09,28,00,43,11.30
2017,09,28,00,44,11.30
2017,09,28,00,45,11.40
2017,09,28,00,46,11.50
2017,09,28,00,47,11.50
2017,09,28,00,48,11.60
2017,09,28,00,49,11.70
2017,09,28,00,50,11.70
2017,09,28,00,51,11.80
2017,09,28,00,52,11.90
2017,09,28,00,53,12.00
2017,09,28,00,54,12.00
2017,09,28,00,55,12.10
2017,09,28,00,56,12.10
2017,09,28,00,57,12.20
2017,09,28,00,58,12.20
2017,09,28,00,59,12.20
2017,09,28,01,00,12.20
2017,09,28,01,01,12.30
2017,09,28,01,02,12.30
2017,09,28,01,03,12.30
2017,09,28,01,04,12.30
2017,09,28,01,05,12.30
2017,09,28,01,06,12.30
2017,09,28,01,07,12.40
2017,09,28,01,08,12.40
2017,09,28,01,09,12.40
2017,09,28,01,10,12.40
2017,09,28,01,11,12.40
2017,09,28,01,12,12.40
2017,09,28,01,13,12.40
2017,09,28,01,14,12.40
2017,09,28,01,15,12.40
2017,09,28,01,16,12.40
2017,09,28,01,17,12.40
2017,09,28,01,18,12.40
2017,09,28,01,19,12.40
2017,09,28,01,20,12.40
2017,09,28,01,21,12.40
2017,09,28,01,22,12.40
2017,09,28,01,23,12.40
2017,09,28,01,24,12.40
2017,09,28,01,25,12.40
2017,09,28,01,26,12.40
2017,09,28,01,27,12.30
2017,09,28,01,28,12.30
2017,09,28,01,29,12.30
2017,09,28,01,30,12.30
2017,09,28,01,31,12.30
2017,09,28,01,32,12.30
2017,09,28,01,33,12.30
2017,09,28,01,34,12.30
2017,09,28,01,35,12.30
2017,09,28,01,36,12.30
2017,09,28,01,37,12.30
2017,09,28,01,38,12.30
2017,09,28,01,39,12.30
2017,09,28,01,40,12.30
2017,09,28,01,41,12.30
2017,09,28,01,42,12.20
2017,09,28,01,43,12.30
2017,09,28,01,44,12.30
2017,09,28,01,45,12.30
2017,09,28,01,46,12.30
2017,09,28,01,47,12.30
2017,09,28,01,48,12.20
2017,09,28,01,49,12.20
2017,09,28,01,50,12.20
2017,09,28,01,51,12.20
2017,09,28,01,52,12.30
2017,09,28,01,53,12.30
2017,09,28,01,54,12.30
2017,09,28,01,55,12.30
2017,09,28,01,56,12.40
2017,09,28,01,57,12.40
2017,09,28,01,58,12.40
2017,09,28,01,59,12.50
2017,09,28,02,00,12.50
2017,09,28,02,01,12.50
2017,09,28,02,02,12.50
2017,09,28,02,03,12.60
2017,09,28,02,04,12.60
2017,09,28,02,05,12.60
2017,09,28,02,06,12.60
2017,09,28,02,07,12.60
2017,09,28,02,08,12.60
2017,09,28,02,09,12.60
2017,09,28,02,10,12.60
2017,09,28,02,11,12.70
2017,09,28,02,12,12.70
2017,09,28,02,13,12.70
2017,09,28,02,14,12.70
2017,09,28,02,15,12.70
2017,09,28,02,16,12.70
2017,09,28,02,17,12.70
2017,09,28,02,18,12.80
2017,09,28,02,19,12.80
2017,09,28,02,20,12.80
2017,09,28,02,21,12.90
2017,09,28,02,22,12.90
2017,09,28,02,23,12.90
2017,09,28,02,24,12.90
2017,09,28,02,25,12.90
2017,09,28,02,26,12.90
2017,09,28,02,27,12.90
2017,09,28,02,28,12.90
2017,09,28,02,29,12.90
2017,09,28,02,30,12.90
2017,09,28,02,31,13.00
2017,09,28,02,32,13.00
2017,09,28,02,33,13.00
2017,09,28,02,34,13.00
2017,09,28,02,35,13.10
2017,09,28,02,36,13.10
2017,09,28,02,37,13.10
2017,09,28,02,38,13.10
2017,09,28,02,39,13.20
2017,09,28,02,40,13.20
2017,09,28,02,41,13.20
2017,09,28,02,42,13.20
2017,09,28,02,43,13.30
2017,09,28,02,44,13.20
2017,09,28,02,45,13.20
2017,09,28,02,46,13.20
2017,09,28,02,47,13.20
2017,09,28,02,48,13.20
2017,09,28,02,49,13.20
2017,09,28,02,50,13.20
2017,09,28,02,51,13.20
2017,09,28,02,52,13.10
2017,09,28,02,53,13.10
2017,09,28,02,54,13.10
2017,09,28,02,55,13.10
2017,09,28,02,56,13.10
2017,09,28,02,57,13.10
2017,09,28,02,58,13.10
2017,09,28,02,59,13.10
2017,09,28,03,00,13.10
2017,09,28,03,01,13.00
2017,09,28,03,02,13.00
2017,09,28,03,03,12.90
2017,09,28,03,04,12.90
2017,09,28,03,05,12.90
2017,09,28,03,06,12.90
2017,09,28,03,07,12.80
2017,09,28,03,08,12.80
2017,09,28,03,09,12.80
2017,09,28,03,10,12.80
2017,09,28,03,11,12.80
2017,09,28,03,12,12.70
2017,09,28,03,13,12.70
2017,09,28,03,14,12.70
2017,09,28,03,15,12.60
2017,09,28,03,16,12.60
2017,09,28,03,17,12.60
2017,09,28,03,18,12.50
2017,09,28,03,19,12.50
2017,09,28,03,20,12.40
2017,09,28,03,21,12.40
2017,09,28,03,22,12.40
2017,09,28,03,23,12.30
2017,09,28,03,24,12.30
2017,09,28,03,25,12.30
2017,09,28,03,26,12.20
2017,09,28,03,27,12.20
2017,09,28,03,28,12.20
2017,09,28,03,29,12.10
2017,09,28,03,30,12.10
2017,09,28,03,31,12.10
2017,09,28,03,32,12.10
2017,09,28,03,33,12.00
2017,09,28,03,34,12.00
2017,09,28,03,35,12.00
2017,09,28,03,36,11.90
2017,09,28,03,37,11.90
2017,09,28,03,38,11.90
2017,09,28,03,39,11.90
2017,09,28,03,40,11.80
2017,09,28,03,41,11.80
2017,09,28,03,42,11.80
2017,09,28,03,43,11.80
2017,09,28,03,44,11.80
2017,09,28,03,45,11.80
2017,09,28,03,46,11.80
2017,09,28,03,47,11.70
2017,09,28,03,48,11.70
2017,09,28,03,49,11.70
2017,09,28,03,50,11.70
2017,09,28,03,51,11.70
2017,09,28,03,52,11.60
2017,09,28,03,53,11.60
2017,09,28,03,54,11.60
2017,09,28,03,55,11.60
2017,09,28,03,56,11.60
2017,09,28,03,57,11.60
2017,09,28,03,58,11.60
2017,09,28,03,59,11.60
2017,09,28,04,00,11.60
2017,09,28,04,01,11.60
2017,09,28,04,02,11.60
2017,09,28,04,03,11.60
2017,09,28,04,04,11.60
2017,09,28,04,05,11.60
2017,09,28,04,06,11.60
2017,09,28,04,07,11.60
2017,09,28,04,08,11.60
2017,09,28,04,09,11.60
2017,09,28,04,10,11.60
2017,09,28,04,11,11.60
2017,09,28,04,12,11.60
2017,09,28,04,13,11.60
2017,09,28,04,14,11.60
2017,09,28,04,15,11.60
2017,09,28,04,16,11.60
2017,09,28,04,17,11.50
2017,09,28,04,18,11.50
2017,09,28,04,19,11.50
2017,09,28,04,20,11.50
2017,09,28,04,21,11.60
2017,09,28,04,22,11.60
2017,09,28,04,23,11.60
2017,09,28,04,24,11.50
2017,09,28,04,25,11.50
2017,09,28,04,26,11.50
2017,09,28,04,27,11.50
2017,09,28,04,28,11.50
2017,09,28,04,29,11.50
2017,09,28,04,30,11.50
2017,09,28,04,31,11.50
2017,09,28,04,32,11.50
2017,09,28,04,33,11.50
2017,09,28,04,34,11.50
2017,09,28,04,35,11.50
2017,09,28,04,36,11.50
2017,09,28,04,37,11.50
2017,09,28,04,38,11.50
2017,09,28,04,39,11.50
2017,09,28,04,40,11.50
2017,09,28,04,41,11.50
2017,09,28,04,42,11.60
2017,09,28,04,43,11.60
2017,09,28,04,44,11.60
2017,09,28,04,45,11.60
2017,09,28,04,46,11.60
2017,09,28,04,47,11.60
2017,09,28,04,48,11.60
2017,09,28,04,49,11.60
2017,09,28,04,50,11.60
2017,09,28,04,51,11.60
2017,09,28,04,52,11.60
2017,09,28,04,53,11.60
2017,09,28,04,54,11.60
2017,09,28,04,55,11.60
2017,09,28,04,56,11.60
2017,09,28,04,57,11.50
2017,09,28,04,58,11.50
2017,09,28,04,59,11.50
2017,09,28,05,00,11.50
2017,09,28,05,01,11.40
2017,09,28,05,02,11.40
2017,09,28,05,03,11.40
2017,09,28,05,04,11.40
2017,09,28,05,05,11.40
2017,09,28,05,06,11.40
2017,09,28,05,07,11.30
2017,09,28,05,08,11.30
2017,09,28,05,09,11.30
2017,09,28,05,10,11.30
2017,09,28,05,11,11.30
2017,09,28,05,12,11.30
2017,09,28,05,13,11.30
2017,09,28,05,14,11.20
2017,09,28,05,15,11.20
2017,09,28,05,16,11.20
2017,09,28,05,17,11.20
2017,09,28,05,18,11.20
2017,09,28,05,19,11.20
2017,09,28,05,20,11.10
2017,09,28,05,21,11.10
2017,09,28,05,22,11.10
2017,09,28,05,23,11.10
2017,09,28,05,24,11.10
2017,09,28,05,25,11.10
2017,09,28,05,26,11.10
2017,09,28,05,27,11.10
2017,09,28,05,28,11.10
2017,09,28,05,29,11.10
2017,09,28,05,30,11.10
2017,09,28,05,31,11.10
2017,09,28,05,32,11.10
2017,09,28,05,33,11.10
2017,09,28,05,34,11.10
2017,09,28,05,35,11.10
2017,09,28,05,36,11.10
2017,09,28,05,37,11.10
2017,09,28,05,38,11.10
2017,09,28,05,39,11.00
2017,09,28,05,40,11.00
2017,09,28,05,41,11.10
2017,09,28,05,42,11.10
2017,09,28,05,43,11.10
2017,09,28,05,44,11.10
2017,09,28,05,45,11.00
2017,09,28,05,46,11.00
2017,09,28,05,47,11.00
2017,09,28,05,48,10.90
2017,09,28,05,49,10.90
2017,09,28,05,50,10.90
2017,09,28,05,51,10.90
2017,09,28,05,52,10.90
2017,09,28,05,53,10.80
2017,09,28,05,54,10.90
2017,09,28,05,55,10.90
2017,09,28,05,56,10.80
2017,09,28,05,57,10.80
2017,09,28,05,58,10.80
2017,09,28,05,59,10.80
2017,09,28,06,00,10.80
2017,09,28,06,01,10.80
2017,09,28,06,02,10.80
2017,09,28,06,03,10.80
2017,09,28,06,04,10.80
2017,09,28,06,05,10.80
2017,09,28,06,06,10.80
2017,09,28,06,07,10.80
2017,09,28,06,08,10.80
2017,09,28,06,09,10.80
2017,09,28,06,10,10.80
2017,09,28,06,11,10.80
2017,09,28,06,12,10.90
2017,09,28,06,13,10.90
2017,09,28,06,14,10.90
2017,09,28,06,15,10.90
2017,09,28,06,16,11.00
2017,09,28,06,17,11.00
2017,09,28,06,18,11.00
2017,09,28,06,19,11.00
2017,09,28,06,20,11.00
2017,09,28,06,21,11.00
2017,09,28,06,22,11.00
2017,09,28,06,23,11.00
2017,09,28,06,24,11.00
2017,09,28,06,25,11.00
2017,09,28,06,26,11.00
2017,09,28,06,27,11.00
2017,09,28,06,28,11.00
2017,09,28,06,29,11.10
2017,09,28,06,30,11.10
2017,09,28,06,31,11.10
2017,09,28,06,32,11.10
2017,09,28,06,33,11.10
2017,09,28,06,34,11.10
2017,09,28,06,35,11.10
2017,09,28,06,36,11.10
2017,09,28,06,37,11.10
2017,09,28,06,38,11.10
2017,09,28,06,39,11.10
2017,09,28,06,40,11.10
2017,09,28,06,41,11.10
2017,09,28,06,42,11.10
2017,09,28,06,43,11.10
2017,09,28,06,44,11.10
2017,09,28,06,45,11.20
2017,09,28,06,46,11.20
2017,09,28,06,47,11.20
2017,09,28,06,48,11.20
2017,09,28,06,49,11.20
2017,09,28,06,50,11.20
2017,09,28,06,51,11.20
2017,09,28,06,52,11.30
2017,09,28,06,53,11.30
2017,09,28,06,54,11.30
2017,09,28,06,55,11.30
2017,09,28,06,56,11.30
2017,09,28,06,57,11.30
2017,09,28,06,58,11.30
2017,09,28,06,59,11.30
2017,09,28,07,00,11.30
2017,09,28,07,01,11.30
2017,09,28,07,02,11.30
2017,09,28,07,03,11.30
2017,09,28,07,04,11.30
2017,09,28,07,05,11.30
2017,09,28,07,06,11.40
2017,09,28,07,07,11.40
2017,09,28,07,08,11.40
2017,09,28,07,09,11.40
2017,09,28,07,10,11.40
2017,09,28,07,11,11.50
2017,09,28,07,12,11.50
2017,09,28,07,13,11.50
2017,09,28,07,14,11.60
2017,09,28,07,15,11.60
2017,09,28,07,16,11.60
2017,09,28,07,17,11.60
2017,09,28,07,18,11.60
2017,09,28,07,19,11.60
2017,09,28,07,20,11.60
2017,09,28,07,21,11.60
2017,09,28,07,22,11.60
2017,09,28,07,23,11.60
2017,09,28,07,24,11.60
2017,09,28,07,25,11.60
2017,09,28,07,26,11.60
2017,09,28,07,27,11.60
2017,09,28,07,28,11.60
2017,09,28,07,29,11.60
2017,09,28,07,30,11.60
2017,09,28,07,31,11.60
2017,09,28,07,32,11.60
2017,09,28,07,33,11.60
2017,09,28,07,34,11.60
2017,09,28,07,35,11.60
2017,09,28,07,36,11.50
2017,09,28,07,37,11.50
2017,09,28,07,38,11.50
2017,09,28,07,39,11.60
2017,09,28,07,40,11.60
2017,09,28,07,41,11.60
2017,09,28,07,42,11.60
2017,09,28,07,43,11.70
2017,09,28,07,44,11.70
2017,09,28,07,45,11.70
2017,09,28,07,46,11.70
2017,09,28,07,47,11.70
2017,09,28,07,48,11.70
2017,09,28,07,49,11.70
2017,09,28,07,50,11.70
2017,09,28,07,51,11.70
2017,09,28,07,52,11.70
2017,09,28,07,53,11.70
2017,09,28,07,54,11.70
2017,09,28,07,55,11.80
2017,09,28,07,56,11.80
2017,09,28,07,57,11.80
2017,09,28,07,58,11.80
2017,09,28,07,59,11.80
2017,09,28,08,00,11.90
2017,09,28,08,01,11.90
2017,09,28,08,02,11.90
2017,09,28,08,03,11.90
2017,09,28,08,04,12.00
2017,09,28,08,05,12.00
2017,09,28,08,06,12.00
2017,09,28,08,07,12.00
2017,09,28,08,08,12.00
2017,09,28,08,09,12.10
2017,09,28,08,10,12.10
2017,09,28,08,11,12.10
2017,09,28,08,12,12.10
2017,09,28,08,13,12.20
2017,09,28,08,14,12.20
2017,09,28,08,15,12.30
2017,09,28,08,16,12.40
2017,09,28,08,17,12.50
2017,09,28,08,18,12.60
2017,09,28,08,19,12.70
2017,09,28,08,20,12.80
2017,09,28,08,21,12.80
2017,09,28,08,22,12.90
2017,09,28,08,23,12.90
2017,09,28,08,24,13.00
2017,09,28,08,25,13.10
2017,09,28,08,26,13.20
2017,09,28,08,27,13.30
2017,09,28,08,28,13.40
2017,09,28,08,29,13.40
2017,09,28,08,30,13.50
2017,09,28,08,31,13.50
2017,09,28,08,32,13.60
2017,09,28,08,33,13.70
2017,09,28,08,34,13.80
2017,09,28,08,35,13.80
2017,09,28,08,36,13.90
2017,09,28,08,37,13.90
2017,09,28,08,38,13.90
2017,09,28,08,39,14.00
2017,09,28,08,40,14.00
2017,09,28,08,41,14.10
2017,09,28,08,42,14.10
2017,09,28,08,43,14.10
2017,09,28,08,44,14.10
2017,09,28,08,45,14.20
2017,09,28,08,46,14.20
2017,09,28,08,47,14.20
2017,09,28,08,48,14.20
2017,09,28,08,49,14.20
2017,09,28,08,50,14.20
2017,09,28,08,51,14.30
2017,09,28,08,52,14.30
2017,09,28,08,53,14.40
2017,09,28,08,54,14.40
2017,09,28,08,55,14.50
2017,09,28,08,56,14.50
2017,09,28,08,57,14.60
2017,09,28,08,58,14.60
2017,09,28,08,59,14.70
2017,09,28,09,00,14.70
2017,09,28,09,01,14.70
2017,09,28,09,02,14.70
2017,09,28,09,03,14.80
2017,09,28,09,04,14.80
2017,09,28,09,05,14.70
2017,09,28,09,06,14.70
2017,09,28,09,07,14.80
2017,09,28,09,08,14.80
2017,09,28,09,09,14.80
2017,09,28,09,10,14.90
2017,09,28,09,11,14.90
2017,09,28,09,12,14.90
2017,09,28,09,13,14.90
2017,09,28,09,14,15.00
2017,09,28,09,15,15.00
2017,09,28,09,16,15.00
2017,09,28,09,17,15.10
2017,09,28,09,18,15.10
2017,09,28,09,19,15.10
2017,09,28,09,20,15.20
2017,09,28,09,21,15.20
2017,09,28,09,22,15.30
2017,09,28,09,23,15.30
2017,09,28,09,24,15.40
2017,09,28,09,25,15.40
2017,09,28,09,26,15.50
2017,09,28,09,27,15.50
2017,09,28,09,28,15.60
2017,09,28,09,29,15.60
2017,09,28,09,30,15.70
2017,09,28,09,31,15.70
2017,09,28,09,32,15.60
2017,09,28,09,33,15.60
2017,09,28,09,34,15.60
2017,09,28,09,35,15.60
2017,09,28,09,36,15.60
2017,09,28,09,37,15.60
2017,09,28,09,38,15.60
2017,09,28,09,39,15.70
2017,09,28,09,40,15.70
2017,09,28,09,41,15.70
2017,09,28,09,42,15.70
2017,09,28,09,43,15.70
2017,09,28,09,44,15.70
2017,09,28,09,45,15.80
2017,09,28,09,46,15.80
2017,09,28,09,47,15.80
2017,09,28,09,48,15.90
2017,09,28,09,49,15.90
2017,09,28,09,50,16.00
2017,09,28,09,51,16.00
2017,09,28,09,52,16.10
2017,09,28,09,53,16.10
2017,09,28,09,54,16.10
2017,09,28,09,55,16.20
2017,09,28,09,56,16.20
2017,09,28,09,57,16.20
2017,09,28,09,58,16.20
2017,09,28,09,59,16.20
2017,09,28,10,00,16.30
2017,09,28,10,01,16.30
2017,09,28,10,02,16.30
2017,09,28,10,03,16.30
2017,09,28,10,04,16.40
2017,09,28,10,05,16.40
2017,09,28,10,06,16.50
2017,09,28,10,07,16.50
2017,09,28,10,08,16.60
2017,09,28,10,09,16.70
2017,09,28,10,10,16.70
2017,09,28,10,11,16.70
2017,09,28,10,12,16.80
2017,09,28,10,13,16.80
2017,09,28,10,14,16.90
2017,09,28,10,15,17.00
2017,09,28,10,16,17.00
2017,09,28,10,17,17.10
2017,09,28,10,18,17.10
2017,09,28,10,19,17.20
2017,09,28,10,20,17.20
2017,09,28,10,21,17.20
2017,09,28,10,22,17.20
2017,09,28,10,23,17.30
2017,09,28,10,24,17.30
2017,09,28,10,25,17.30
2017,09,28,10,26,17.30
2017,09,28,10,27,17.30
2017,09,28,10,28,17.40
2017,09,28,10,29,17.40
2017,09,28,10,30,17.50
2017,09,28,10,31,17.50
2017,09,28,10,32,17.60
2017,09,28,10,33,17.60
2017,09,28,10,34,17.60
2017,09,28,10,35,17.60
2017,09,28,10,36,17.70
2017,09,28,10,37,17.70
2017,09,28,10,38,17.70
2017,09,28,10,39,17.80
2017,09,28,10,40,17.80
2017,09,28,10,41,17.80
2017,09,28,10,42,17.80
2017,09,28,10,43,17.80
2017,09,28,10,44,17.80
2017,09,28,10,45,17.80
2017,09,28,10,46,17.80
2017,09,28,10,47,17.80
2017,09,28,10,48,17.80
2017,09,28,10,49,17.80
2017,09,28,10,50,17.80
2017,09,28,10,51,17.80
2017,09,28,10,52,17.80
2017,09,28,10,53,17.90
2017,09,28,10,54,17.90
2017,09,28,10,55,17.90
2017,09,28,10,56,18.00
2017,09,28,10,57,18.00
2017,09,28,10,58,18.10
2017,09,28,10,59,18.10
2017,09,28,11,00,18.20
2017,09,28,11,01,18.20
2017,09,28,11,02,18.20
2017,09,28,11,03,18.30
2017,09,28,11,04,18.30
2017,09,28,11,05,18.30
2017,09,28,11,06,18.40
2017,09,28,11,07,18.40
2017,09,28,11,08,18.40
2017,09,28,11,09,18.40
2017,09,28,11,10,18.40
2017,09,28,11,11,18.40
2017,09,28,11,12,18.50
2017,09,28,11,13,18.50
2017,09,28,11,14,18.60
2017,09,28,11,15,18.60
2017,09,28,11,16,18.60
2017,09,28,11,17,18.60
2017,09,28,11,18,18.60
2017,09,28,11,19,18.70
2017,09,28,11,20,18.70
2017,09,28,11,21,18.70
2017,09,28,11,22,18.70
2017,09,28,11,23,18.80
2017,09,28,11,24,18.80
2017,09,28,11,25,18.80
2017,09,28,11,26,18.80
2017,09,28,11,27,18.80
2017,09,28,11,28,18.90
2017,09,28,11,29,18.90
2017,09,28,11,30,19.00
2017,09,28,11,31,19.10
2017,09,28,11,32,19.10
2017,09,28,11,33,19.10
2017,09,28,11,34,19.20
2017,09,28,11,35,19.20
2017,09,28,11,36,19.20
2017,09,28,11,37,19.30
2017,09,28,11,38,19.30
2017,09,28,11,39,19.30
2017,09,28,11,40,19.30
2017,09,28,11,41,19.30
2017,09,28,11,42,19.40
2017,09,28,11,43,19.40
2017,09,28,11,44,19.40
2017,09,28,11,45,19.50
2017,09,28,11,46,19.50
2017,09,28,11,47,19.60
2017,09,28,11,48,19.70
2017,09,28,11,49,19.70
2017,09,28,11,50,19.80
2017,09,28,11,51,19.80
2017,09,28,11,52,19.80
2017,09,28,11,53,19.90
2017,09,28,11,54,19.90
2017,09,28,11,55,19.90
2017,09,28,11,56,19.90
2017,09,28,11,57,19.90
2017,09,28,11,58,19.90
2017,09,28,11,59,19.80
2017,09,28,12,00,19.80
2017,09,28,12,01,19.80
2017,09,28,12,02,19.80
2017,09,28,12,03,19.80
2017,09,28,12,04,19.80
2017,09,28,12,05,19.80
2017,09,28,12,06,19.80
2017,09,28,12,07,19.70
2017,09,28,12,08,19.70
2017,09,28,12,09,19.70
2017,09,28,12,10,19.70
2017,09,28,12,11,19.60
2017,09,28,12,12,19.60
2017,09,28,12,13,19.50
2017,09,28,12,14,19.50
2017,09,28,12,15,19.40
2017,09,28,12,16,19.30
2017,09,28,12,17,19.30
2017,09,28,12,18,19.30
2017,09,28,12,19,19.30
2017,09,28,12,20,19.30
2017,09,28,12,21,19.30
2017,09,28,12,22,19.30
2017,09,28,12,23,19.30
2017,09,28,12,24,19.40
2017,09,28,12,25,19.40
2017,09,28,12,26,19.40
2017,09,28,12,27,19.50
2017,09,28,12,28,19.60
2017,09,28,12,29,19.70
2017,09,28,12,30,19.80
2017,09,28,12,31,19.90
2017,09,28,12,32,20.00
2017,09,28,12,33,20.10
2017,09,28,12,34,20.10
2017,09,28,12,35,20.20
2017,09,28,12,36,20.30
2017,09,28,12,37,20.30
2017,09,28,12,38,20.40
2017,09,28,12,39,20.50
2017,09,28,12,40,20.60
2017,09,28,12,41,20.60
2017,09,28,12,42,20.60
2017,09,28,12,43,20.70
2017,09,28,12,44,20.70
2017,09,28,12,45,20.70
2017,09,28,12,46,20.70
2017,09,28,12,47,20.60
2017,09,28,12,48,20.60
2017,09,28,12,49,20.60
2017,09,28,12,50,20.60
2017,09,28,12,51,20.60
2017,09,28,12,52,20.60
2017,09,28,12,53,20.60
2017,09,28,12,54,20.70
2017,09,28,12,55,20.70
2017,09,28,12,56,20.70
2017,09,28,12,57,20.70
2017,09,28,12,58,20.70
2017,09,28,12,59,20.80
2017,09,28,13,00,20.80
2017,09,28,13,01,20.80
2017,09,28,13,02,20.80
2017,09,28,13,03,20.90
2017,09,28,13,04,20.90
2017,09,28,13,05,20.90
2017,09,28,13,06,20.90
2017,09,28,13,07,20.90
2017,09,28,13,08,21.00
2017,09,28,13,09,21.00
2017,09,28,13,10,21.10
2017,09,28,13,11,21.10
2017,09,28,13,12,21.20
2017,09,28,13,13,21.20
2017,09,28,13,14,21.20
2017,09,28,13,15,21.10
2017,09,28,13,16,21.20
2017,09,28,13,17,21.20
2017,09,28,13,18,21.20
2017,09,28,13,19,21.30
2017,09,28,13,20,21.30
2017,09,28,13,21,21.40
2017,09,28,13,22,21.40
2017,09,28,13,23,21.50
2017,09,28,13,24,21.50
2017,09,28,13,25,21.60
2017,09,28,13,26,21.60
2017,09,28,13,27,21.70
2017,09,28,13,28,21.70
2017,09,28,13,29,21.70
2017,09,28,13,30,21.80
2017,09,28,13,31,21.80
2017,09,28,13,32,21.90
2017,09,28,13,33,21.90
2017,09,28,13,34,21.90
2017,09,28,13,35,22.00
2017,09,28,13,36,22.00
2017,09,28,13,37,22.00
2017,09,28,13,38,22.10
2017,09,28,13,39,22.20
2017,09,28,13,40,22.20
2017,09,28,13,41,22.20
2017,09,28,13,42,22.20
2017,09,28,13,43,22.10
2017,09,28,13,44,22.10
2017,09,28,13,45,22.20
2017,09,28,13,46,22.20
2017,09,28,13,47,22.20
2017,09,28,13,48,22.30
2017,09,28,13,49,22.30
2017,09,28,13,50,22.30
2017,09,28,13,51,22.40
2017,09,28,13,52,22.50
2017,09,28,13,53,22.50
2017,09,28,13,54,22.60
2017,09,28,13,55,22.60
2017,09,28,13,56,22.60
2017,09,28,13,57,22.70
2017,09,28,13,58,22.70
2017,09,28,13,59,22.70
2017,09,28,14,00,22.70
2017,09,28,14,01,22.70
2017,09,28,14,02,22.70
2017,09,28,14,03,22.70
2017,09,28,14,04,22.70
2017,09,28,14,05,22.70
2017,09,28,14,06,22.70
2017,09,28,14,07,22.60
2017,09,28,14,08,22.60
2017,09,28,14,09,22.60
2017,09,28,14,10,22.60
2017,09,28,14,11,22.70
2017,09,28,14,12,22.70
2017,09,28,14,13,22.60
2017,09,28,14,14,22.60
2017,09,28,14,15,22.70
2017,09,28,14,16,22.70
2017,09,28,14,17,22.70
2017,09,28,14,18,22.70
2017,09,28,14,19,22.70
2017,09,28,14,20,22.70
2017,09,28,14,21,22.80
2017,09,28,14,22,22.80
2017,09,28,14,23,22.80
2017,09,28,14,24,22.90
2017,09,28,14,25,22.90
2017,09,28,14,26,22.90
2017,09,28,14,27,23.00
2017,09,28,14,28,23.00
2017,09,28,14,29,23.00
2017,09,28,14,30,23.00
2017,09,28,14,31,23.00
2017,09,28,14,32,23.10
2017,09,28,14,33,23.10
2017,09,28,14,34,23.20
2017,09,28,14,35,23.30
2017,09,28,14,36,23.40
2017,09,28,14,37,23.40
2017,09,28,14,38,23.40
2017,09,28,14,39,23.40
2017,09,28,14,40,23.40
2017,09,28,14,41,23.40
2017,09,28,14,42,23.50
2017,09,28,14,43,23.50
2017,09,28,14,44,23.60
2017,09,28,14,45,23.60
2017,09,28,14,46,23.50
2017,09,28,14,47,23.50
2017,09,28,14,48,23.50
2017,09,28,14,49,23.40
2017,09,28,14,50,23.50
2017,09,28,14,51,23.60
2017,09,28,14,52,23.60
2017,09,28,14,53,23.70
2017,09,28,14,54,23.70
2017,09,28,14,55,23.70
2017,09,28,14,56,23.70
2017,09,28,14,57,23.80
2017,09,28,14,58,23.80
2017,09,28,14,59,23.90
2017,09,28,15,00,23.90
2017,09,28,15,01,24.00
2017,09,28,15,02,24.10
2017,09,28,15,03,24.10
2017,09,28,15,04,24.20
2017,09,28,15,05,24.30
2017,09,28,15,06,24.40
2017,09,28,15,07,24.50
2017,09,28,15,08,24.50
2017,09,28,15,09,24.60
2017,09,28,15,10,24.60
2017,09,28,15,11,24.60
2017,09,28,15,12,24.60
2017,09,28,15,13,24.70
2017,09,28,15,14,24.70
2017,09,28,15,15,24.70
2017,09,28,15,16,24.70
2017,09,28,15,17,24.80
2017,09,28,15,18,24.80
2017,09,28,15,19,24.80
2017,09,28,15,20,24.90
2017,09,28,15,21,24.90
2017,09,28,15,22,25.00
2017,09,28,15,23,25.00
2017,09,28,15,24,25.00
2017,09,28,15,25,25.00
2017,09,28,15,26,24.80
2017,09,28,15,27,24.80
2017,09,28,15,28,24.70
2017,09,28,15,29,24.70
2017,09,28,15,30,24.70
2017,09,28,15,31,24.80
2017,09,28,15,32,24.80
2017,09,28,15,33,24.80
2017,09,28,15,34,24.80
2017,09,28,15,35,24.80
2017,09,28,15,36,24.70
2017,09,28,15,37,24.70
2017,09,28,15,38,24.50
2017,09,28,15,39,24.40
2017,09,28,15,40,24.30
2017,09,28,15,41,24.30
2017,09,28,15,42,24.30
2017,09,28,15,43,24.30
2017,09,28,15,44,24.30
2017,09,28,15,45,24.40
2017,09,28,15,46,24.40
2017,09,28,15,47,24.40
2017,09,28,15,48,24.40
2017,09,28,15,49,24.40
2017,09,28,15,50,24.50
2017,09,28,15,51,24.60
2017,09,28,15,52,24.70
2017,09,28,15,53,24.70
2017,09,28,15,54,24.70
2017,09,28,15,55,24.80
2017,09,28,15,56,24.80
2017,09,28,15,57,24.80
2017,09,28,15,58,24.90
2017,09,28,15,59,24.90
2017,09,28,16,00,24.90
2017,09,28,16,01,24.90
2017,09,28,16,02,24.90
2017,09,28,16,03,24.90
2017,09,28,16,04,24.80
2017,09,28,16,05,24.80
2017,09,28,16,06,24.70
2017,09,28,16,07,24.70
2017,09,28,16,08,24.70
2017,09,28,16,09,24.70
2017,09,28,16,10,24.70
2017,09,28,16,11,24.70
2017,09,28,16,12,24.70
2017,09,28,16,13,24.70
2017,09,28,16,14,24.60
2017,09,28,16,15,24.60
2017,09,28,16,16,24.50
2017,09,28,16,17,24.40
2017,09,28,16,18,24.30
2017,09,28,16,19,24.30
2017,09,28,16,20,24.30
2017,09,28,16,21,24.30
2017,09,28,16,22,24.30
2017,09,28,16,23,24.30
2017,09,28,16,24,24.40
2017,09,28,16,25,24.40
2017,09,28,16,26,24.50
2017,09,28,16,27,24.50
2017,09,28,16,28,24.50
2017,09,28,16,29,24.60
2017,09,28,16,30,24.60
2017,09,28,16,31,24.70
2017,09,28,16,32,24.80
2017,09,28,16,33,24.80
2017,09,28,16,34,24.90
2017,09,28,16,35,25.00
2017,09,28,16,36,25.00
2017,09,28,16,37,25.10
2017,09,28,16,38,25.10
2017,09,28,16,39,25.10
2017,09,28,16,40,25.10
2017,09,28,16,41,25.10
2017,09,28,16,42,25.00
2017,09,28,16,43,24.90
2017,09,28,16,44,24.80
2017,09,28,16,45,24.80
2017,09,28,16,46,24.70
2017,09,28,16,47,24.70
2017,09,28,16,48,24.70
2017,09,28,16,49,24.60
2017,09,28,16,50,24.60
2017,09,28,16,51,24.50
2017,09,28,16,52,24.50
2017,09,28,16,53,24.50
2017,09,28,16,54,24.50
2017,09,28,16,55,24.50
2017,09,28,16,56,24.50
2017,09,28,16,57,24.50
2017,09,28,16,58,24.40
2017,09,28,16,59,24.40
2017,09,28,17,00,24.40
2017,09,28,17,01,24.30
2017,09,28,17,02,24.20
2017,09,28,17,03,24.20
2017,09,28,17,04,24.10
2017,09,28,17,05,24.00
2017,09,28,17,06,23.90
2017,09,28,17,07,23.80
2017,09,28,17,08,23.80
2017,09,28,17,09,23.80
2017,09,28,17,10,23.80
2017,09,28,17,11,23.80
2017,09,28,17,12,23.80
2017,09,28,17,13,23.80
2017,09,28,17,14,23.80
2017,09,28,17,15,23.80
2017,09,28,17,16,23.80
2017,09,28,17,17,23.80
2017,09,28,17,18,23.70
2017,09,28,17,19,23.70